Regional Weather Roundup
Issued by NWS Cleveland, OH

Home | Current Version | Previous Version | Graphics & Text | Print | Product List | Glossary On
Versions: 1 2 3 4 5 6 7 8 9 10 11 12 13 14 15 16 17 18 19 20 21 22 23 24 25 26 27 28 29 30 31 32 33 34 35 36 37 38 39 40 41 42 43 44 45 46 47 48 49 50
000
ASUS41 KCLE 232310
RWRCLE
OHIO REGIONAL WEATHER ROUNDUP
NATIONAL WEATHER SERVICE WILMINGTON, OH
700 PM EDT SAT MAY 23 2015

NOTE: "FAIR" INDICATES FEW OR NO CLOUDS BELOW 12,000 FEET WITH NO
SIGNIFICANT WEATHER AND/OR OBSTRUCTIONS TO VISIBILITY.

OHZ001>008-015>018-024>027-034-035-043-044-240000-
   NORTHWEST OHIO

CITY           SKY/WX    TMP DP  RH WIND       PRES   REMARKS
DEFIANCE       SUNNY     78  41  26 SW6       30.27S
FINDLAY        MOSUNNY   78  42  27 S5        30.26F
TOLEDO EXPRESS SUNNY     77  38  24 W9        30.27F
TOLEDO EXEC    SUNNY     74  40  29 E9        30.28F
LIMA           MOSUNNY   76  43  30 S3        30.28F
$$

OHZ009>014-019>023-028>033-038-089-240000-
   NORTHEAST OHIO

CITY           SKY/WX    TMP DP  RH WIND       PRES   REMARKS
CLE-HOPKINS    MOSUNNY   70  36  28 NE7       30.32F
CLE-LAKEFRONT  MOSUNNY   64  45  49 NE9       30.31F
CUY CO. ARPT   MOSUNNY   70  39  32 NE7       30.33F
LORAIN-ELYRIA  SUNNY     72  37  28 E7        30.31F
ASHTABULA      SUNNY     69  28  21 N5        30.34F
AKRON-CANTON   SUNNY     72  35  25 SW9       30.33F
WOOSTER        SUNNY     73  34  23 SW8       30.32F
MANSFIELD      SUNNY     74  40  29 SW8       30.31F
YOUNGSTOWN     MOSUNNY   71  34  25 CALM      30.33F
$$

OHZ042-051>053-060>062-070>072-077>081-240000-
  SOUTHWEST OHIO

CITY           SKY/WX    TMP DP  RH WIND       PRES   REMARKS
CINC-COVINGTON PTSUNNY   77  46  33 SE8       30.28F
CINC-LUNKEN    SUNNY     77  47  34 S6        30.28F
HAMILTON       SUNNY     79  44  28 E6        30.28F
DAYTON         MOSUNNY   77  44  30 S8        30.30F
WRIGHT-PAT AFB SUNNY     78  44  30 S6        30.28F
DAYTON GENERAL SUNNY     76  46  34 SE6       30.28F
WILMINGTON     SUNNY     76  38  25 S6        30.30F
$$

OHZ036-037-039>041-045>050-054>059-063>069-073>076-082>088-240000-
  CENTRAL AND SOUTHEAST OHIO

CITY           SKY/WX    TMP DP  RH WIND       PRES   REMARKS
COLUMBUS       MOSUNNY   75  41  29 S6        30.30F
OSU AIRPORT    MOSUNNY   76  44  32 CALM      30.30F
BOLTON FIELD   MOSUNNY   75  43  31 CALM      30.31F
RICKENBACK AFB SUNNY     75  42  30 E6        30.30F
NEWARK         SUNNY     76  38  25 CALM      30.31F
MARION         SUNNY     75  37  25 W5        30.30F
LANCASTER      SUNNY     76  37  24 E3        30.32F
ZANESVILLE     SUNNY     74  34  23 NW3       30.33F
NEW PHILLY     SUNNY     75  36  24 SW6       30.33F
$$


USA.gov is the U.S. government's official web portal to all federal, state and local government web resources and services.